When you browse on this site, cookies collect data to enhance your experience and personalize the content and advertising you see.
Visit our Privacy Policy to learn more. By continuing to use the site, you agree to this use of cookies and data.
  • In Österreich
  • Länderverzeichnis
  • Für 7 Tage
  • Wassertemperatur
  • Wetterkarte
  • News
  • Widgets
  • user-avatar
    Anmelden

    Stündliche Wetter Ixmiquilpan

    Heute, 19 August, Montag

    Zeit Temperatur Niederschläge Wind Luftdruck Luftfeuchtigkeit
    00:00 +19°C° 0 mm 1 m/S 621 mmHg 97%
    01:00 +19°C° 0 mm 1 m/S 621 mmHg 97%
    02:00 +17°C° 0 mm 0 m/S 621 mmHg 96%
    03:00 +19°C° 0 mm 1 m/S 621 mmHg 95%
    04:00 +19°C° 0 mm 1 m/S 622 mmHg 93%
    05:00 +19°C° 0 mm 1 m/S 622 mmHg 92%
    06:00 +20°C° 0 mm 1 m/S 622 mmHg 87%
    07:00 +21°C° 0 mm 1 m/S 623 mmHg 81%
    08:00 +22°C° 0 mm 1 m/S 623 mmHg 76%
    09:00 +23°C° 0 mm 2 m/S 623 mmHg 69%
    10:00 +25°C° 0 mm 3 m/S 624 mmHg 62%
    11:00 +26°C° 0 mm 4 m/S 624 mmHg 55%
    12:00 +26°C° 0.2 mm 5 m/S 623 mmHg 56%
    13:00 +26°C° 0.2 mm 6 m/S 623 mmHg 56%
    14:00 +26°C° 0.2 mm 7 m/S 622 mmHg 57%
    15:00 +24°C° 0.1 mm 6 m/S 622 mmHg 61%
    16:00 +23°C° 0.1 mm 6 m/S 622 mmHg 66%
    17:00 +22°C° 0.1 mm 5 m/S 622 mmHg 70%
    18:00 +21°C° 0 mm 4 m/S 622 mmHg 77%
    19:00 +19°C° 0 mm 3 m/S 622 mmHg 84%
    20:00 +18°C° 0 mm 2 m/S 622 mmHg 91%
    21:00 +18°C° 0 mm 2 m/S 622 mmHg 93%
    22:00 +18°C° 0 mm 1 m/S 622 mmHg 94%
    23:00 +18°C° 0 mm 1 m/S 622 mmHg 96%

    Morgen, 20 August, Dienstag

    Zeit Temperatur Niederschläge Wind Luftdruck Luftfeuchtigkeit
    00:00 +18°C° 0 mm 1 m/S 622 mmHg 95%
    01:00 +18°C° 0 mm 1 m/S 622 mmHg 93%
    02:00 +16°C° 0 mm 1 m/S 622 mmHg 92%
    03:00 +16°C° 0 mm 1 m/S 622 mmHg 92%
    04:00 +15°C° 0 mm 1 m/S 622 mmHg 92%
    05:00 +15°C° 0 mm 1 m/S 622 mmHg 92%
    06:00 +16°C° 0 mm 1 m/S 622 mmHg 83%
    07:00 +19°C° 0 mm 1 m/S 623 mmHg 74%
    08:00 +20°C° 0 mm 1 m/S 623 mmHg 65%
    09:00 +21°C° 0 mm 2 m/S 624 mmHg 60%
    10:00 +24°C° 0 mm 3 m/S 624 mmHg 55%
    11:00 +25°C° 0 mm 4 m/S 624 mmHg 49%
    12:00 +26°C° 0 mm 5 m/S 624 mmHg 51%
    13:00 +26°C° 0 mm 5 m/S 623 mmHg 54%
    14:00 +26°C° 0 mm 6 m/S 623 mmHg 56%
    15:00 +24°C° 0.1 mm 6 m/S 622 mmHg 62%
    16:00 +22°C° 0.1 mm 6 m/S 622 mmHg 68%
    17:00 +21°C° 0.1 mm 6 m/S 622 mmHg 74%
    18:00 +20°C° 0 mm 4 m/S 622 mmHg 80%
    19:00 +19°C° 0 mm 3 m/S 622 mmHg 86%
    20:00 +18°C° 0 mm 2 m/S 623 mmHg 92%
    21:00 +18°C° 0 mm 1 m/S 623 mmHg 93%
    22:00 +18°C° 0 mm 1 m/S 623 mmHg 94%
    23:00 +18°C° 0 mm 1 m/S 623 mmHg 95%

    übermorgen, 21 August, Mittwoch

    Zeit Temperatur Niederschläge Wind Luftdruck Luftfeuchtigkeit
    00:00 +18°C° 0.1 mm 1 m/S 622 mmHg 94%
    01:00 +18°C° 0.1 mm 1 m/S 622 mmHg 92%
    02:00 +18°C° 0.1 mm 1 m/S 622 mmHg 91%
    03:00 +18°C° 0 mm 1 m/S 622 mmHg 90%
    04:00 +18°C° 0 mm 1 m/S 622 mmHg 90%
    05:00 +18°C° 0 mm 1 m/S 622 mmHg 89%
    06:00 +19°C° 0 mm 1 m/S 623 mmHg 84%
    07:00 +20°C° 0 mm 1 m/S 623 mmHg 78%
    08:00 +21°C° 0 mm 1 m/S 624 mmHg 73%
    09:00 +22°C° 0 mm 1 m/S 624 mmHg 67%
    10:00 +24°C° 0 mm 2 m/S 624 mmHg 60%
    11:00 +25°C° 0 mm 3 m/S 624 mmHg 54%
    12:00 +25°C° 0.1 mm 3 m/S 624 mmHg 54%
    13:00 +26°C° 0.1 mm 4 m/S 623 mmHg 55%
    14:00 +26°C° 0.1 mm 5 m/S 623 mmHg 56%
    15:00 +25°C° 0.3 mm 5 m/S 622 mmHg 61%
    16:00 +23°C° 0.3 mm 5 m/S 622 mmHg 67%
    17:00 +21°C° 0.3 mm 5 m/S 622 mmHg 73%
    18:00 +20°C° 0 mm 4 m/S 622 mmHg 79%
    19:00 +19°C° 0 mm 3 m/S 622 mmHg 85%
    20:00 +19°C° 0 mm 1 m/S 622 mmHg 91%
    21:00 +18°C° 0 mm 1 m/S 622 mmHg 92%
    22:00 +16°C° 0 mm 0 m/S 622 mmHg 93%
    23:00 +16°C° 0 mm 0 m/S 622 mmHg 94%

    22 August, Donnerstag

    Zeit Temperatur Niederschläge Wind Luftdruck Luftfeuchtigkeit
    00:00 +16°C° 0 mm 0 m/S 621 mmHg 94%
    01:00 +15°C° 0 mm 0 m/S 621 mmHg 94%
    02:00 +15°C° 0 mm 0 m/S 620 mmHg 95%
    03:00 +15°C° 0 mm 0 m/S 620 mmHg 94%
    04:00 +15°C° 0 mm 0 m/S 621 mmHg 94%
    05:00 +14°C° 0 mm 0 m/S 621 mmHg 94%
    06:00 +16°C° 0 mm 0 m/S 622 mmHg 87%
    07:00 +18°C° 0 mm 0 m/S 623 mmHg 79%
    08:00 +22°C° 0 mm 1 m/S 623 mmHg 71%
    09:00 +23°C° 0.1 mm 1 m/S 624 mmHg 66%
    10:00 +25°C° 0.1 mm 1 m/S 624 mmHg 60%
    11:00 +26°C° 0.1 mm 1 m/S 624 mmHg 54%
    12:00 +27°C° 0.5 mm 2 m/S 623 mmHg 53%
    13:00 +27°C° 0.5 mm 2 m/S 623 mmHg 52%
    14:00 +28°C° 0.5 mm 3 m/S 623 mmHg 52%
    15:00 +27°C° 1.4 mm 3 m/S 622 mmHg 59%
    16:00 +25°C° 1.4 mm 3 m/S 622 mmHg 65%
    17:00 +24°C° 1.4 mm 3 m/S 621 mmHg 72%
    18:00 +22°C° 1.3 mm 3 m/S 622 mmHg 77%
    19:00 +21°C° 1.3 mm 2 m/S 622 mmHg 83%
    20:00 +21°C° 1.3 mm 1 m/S 622 mmHg 88%
    21:00 +21°C° 0.6 mm 1 m/S 622 mmHg 87%
    22:00 +21°C° 0.6 mm 1 m/S 623 mmHg 87%
    23:00 +20°C° 0.6 mm 1 m/S 623 mmHg 86%

    23 August, Freitag

    Zeit Temperatur Niederschläge Wind Luftdruck Luftfeuchtigkeit
    00:00 +20°C° 0.1 mm 1 m/S 622 mmHg 87%
    01:00 +20°C° 0.1 mm 1 m/S 622 mmHg 87%
    02:00 +20°C° 0.1 mm 1 m/S 622 mmHg 87%
    03:00 +19°C° 0 mm 1 m/S 622 mmHg 88%
    04:00 +19°C° 0 mm 1 m/S 622 mmHg 88%
    05:00 +19°C° 0 mm 1 m/S 622 mmHg 89%
    06:00 +20°C° 0 mm 1 m/S 623 mmHg 83%
    07:00 +21°C° 0 mm 1 m/S 623 mmHg 77%
    08:00 +22°C° 0 mm 1 m/S 624 mmHg 70%
    09:00 +24°C° 0 mm 1 m/S 624 mmHg 64%
    10:00 +25°C° 0 mm 1 m/S 624 mmHg 58%
    11:00 +27°C° 0 mm 1 m/S 624 mmHg 52%
    12:00 +27°C° 0.5 mm 1 m/S 624 mmHg 52%
    13:00 +27°C° 0.5 mm 1 m/S 624 mmHg 52%
    14:00 +27°C° 0.5 mm 1 m/S 623 mmHg 51%
    15:00 +26°C° 1.9 mm 1 m/S 623 mmHg 61%
    16:00 +24°C° 1.9 mm 1 m/S 622 mmHg 72%
    17:00 +21°C° 1.9 mm 2 m/S 622 mmHg 82%
    18:00 +21°C° 5.5 mm 1 m/S 622 mmHg 85%
    19:00 +20°C° 5.5 mm 1 m/S 622 mmHg 88%
    20:00 +19°C° 5.5 mm 1 m/S 622 mmHg 90%
    21:00 +19°C° 0.3 mm 1 m/S 622 mmHg 90%
    22:00 +19°C° 0.3 mm 1 m/S 623 mmHg 89%
    23:00 +19°C° 0.3 mm 1 m/S 623 mmHg 89%

    24 August, Samstag

    Zeit Temperatur Niederschläge Wind Luftdruck Luftfeuchtigkeit
    00:00 +19°C° 0 mm 1 m/S 623 mmHg 88%
    01:00 +19°C° 0 mm 1 m/S 623 mmHg 88%
    02:00 +19°C° 0 mm 1 m/S 622 mmHg 88%
    03:00 +19°C° 0 mm 1 m/S 622 mmHg 88%
    04:00 +19°C° 0 mm 1 m/S 623 mmHg 87%
    05:00 +19°C° 0 mm 1 m/S 623 mmHg 87%
    06:00 +20°C° 0.1 mm 1 m/S 623 mmHg 83%
    07:00 +18°C° 0.1 mm 0 m/S 624 mmHg 79%
    08:00 +19°C° 0.1 mm 0 m/S 624 mmHg 74%
    09:00 +22°C° 0.5 mm 1 m/S 624 mmHg 70%
    10:00 +23°C° 0.5 mm 1 m/S 625 mmHg 65%
    11:00 +24°C° 0.5 mm 2 m/S 625 mmHg 61%
    12:00 +25°C° 0.3 mm 2 m/S 624 mmHg 58%
    13:00 +25°C° 0.3 mm 2 m/S 624 mmHg 55%
    14:00 +26°C° 0.3 mm 2 m/S 623 mmHg 52%
    15:00 +25°C° 0.1 mm 2 m/S 623 mmHg 55%
    16:00 +25°C° 0.1 mm 1 m/S 623 mmHg 58%
    17:00 +25°C° 0.1 mm 1 m/S 623 mmHg 60%
    18:00 +23°C° 0 mm 1 m/S 623 mmHg 65%
    19:00 +22°C° 0 mm 1 m/S 623 mmHg 70%
    20:00 +21°C° 0 mm 1 m/S 622 mmHg 75%
    21:00 +20°C° 0 mm 1 m/S 622 mmHg 76%
    22:00 +18°C° 0 mm 0 m/S 622 mmHg 77%
    23:00 +17°C° 0 mm 0 m/S 622 mmHg 79%
    Mehr zeigen